Weather History for Three Rivers, MI

Change the Weather History Date:

Sunday, August 18, 2013

  Actual Average Record
Temperature  
Mean Temperature 66 °F -  
Max Temperature 80 °F 82 °F 95 °F (1988)
Min Temperature 52 °F 58 °F 40 °F (1963)
Cooling Degree Days 1    
Growing Degree Days 16 (Base 50)    
Moisture  
Dew Point 57 °F    
Average Humidity 74    
Maximum Humidity 94    
Minimum Humidity 45    
Precipitation  
Precipitation 0.00 in - - ()
Sea Level Pressure  
Sea Level Pressure 30.18 in    
Wind  
Wind Speed 1 mph (South)    
Max Wind Speed 6 mph    
Max Gust Speed -    
Visibility 8 miles    
Events      
Averages and records for this station are not official NWS values.
T = Trace of Precipitation, MM = Missing Value Source: NWS Daily Summary

Daily Weather History Graph

Daily Weather History Graph

Search for Another Location

Airport:

Trip Planner

Search our weather history database for the weather conditions in past years. The results will help you decide how hot, cold, wet, or windy it might be!

Date:

Astronomy

Aug. 18, 2013 Rise Set
Actual Time 6:53 AM EDT 8:37 PM EDT
Civil Twilight 6:23 AM EDT 9:07 PM EDT
Nautical Twilight 5:47 AM EDT 9:43 PM EDT
Astronomical Twilight 5:08 AM EDT 10:22 PM EDT
Moon 6:44 PM EDT (8/18) 4:00 AM EDT (8/18)
Length of Visible Light 14h 43m
Length of Day
13h 44m
Waxing Gibbous, 92% of the Moon is Illuminated
Aug 18
Waxing Gibbous
Aug 20
Full
Aug 28
Last Quarter
Sep 5
New
Sep 12
First Quarter

Hourly Weather History & Observations

Time (EDT) Temp. Heat Index Dew Point Humidity Pressure Visibility Wind Dir Wind Speed Gust Speed Precip Events Conditions
12:14 AM 58.3 °F - 55.2 °F 90% 30.21 in 10.0 mi Calm Calm - N/A   Clear
12:33 AM 57.9 °F - 54.9 °F 90% 30.20 in 10.0 mi Calm Calm - N/A   Clear
12:53 AM 57.0 °F - 53.8 °F 89% 30.21 in 10.0 mi Calm Calm - N/A   Clear
1:13 AM 56.3 °F - 53.6 °F 91% 30.21 in 10.0 mi Calm Calm - N/A   Clear
1:33 AM 57.2 °F - 54.0 °F 89% 30.21 in 10.0 mi Calm Calm - N/A   Clear
1:53 AM 57.0 °F - 54.3 °F 91% 30.21 in 5.0 mi Calm Calm - N/A   Clear
2:13 AM 55.9 °F - 53.6 °F 92% 30.21 in 7.0 mi Calm Calm - N/A   Clear
2:33 AM 55.8 °F - 53.8 °F 93% 30.21 in 7.0 mi Calm Calm - N/A   Clear
2:54 AM 55.0 °F - 52.7 °F 92% 30.21 in 10.0 mi Calm Calm - N/A   Clear
3:13 AM 54.7 °F - 52.7 °F 93% 30.21 in 2.0 mi Calm Calm - N/A   Clear
3:33 AM 54.5 °F - 52.7 °F 94% 30.21 in 4.0 mi Calm Calm - N/A   Clear
3:54 AM 54.0 °F - 52.0 °F 93% 30.20 in 3.0 mi Calm Calm - N/A   Clear
4:13 AM 53.4 °F - 51.3 °F 92% 30.20 in 7.0 mi Calm Calm - N/A   Clear
4:33 AM 52.9 °F - 50.9 °F 93% 30.20 in 4.0 mi Calm Calm - N/A   Clear
4:54 AM 53.1 °F - 51.1 °F 93% 30.19 in 5.0 mi Calm Calm - N/A   Clear
5:13 AM 52.7 °F - 50.9 °F 94% 30.19 in 5.0 mi Calm Calm - N/A   Clear
5:33 AM 54.1 °F - 52.0 °F 92% 30.19 in 7.0 mi Calm Calm - N/A   Clear
5:53 AM 53.1 °F - 51.1 °F 93% 30.20 in 4.0 mi Calm Calm - N/A   Clear
6:13 AM 53.2 °F - 51.4 °F 94% 30.21 in 4.0 mi Calm Calm - N/A   Clear
6:34 AM 53.8 °F - 51.8 °F 93% 30.22 in 3.0 mi Calm Calm - N/A   Clear
6:53 AM 52.7 °F - 50.5 °F 92% 30.22 in 2.0 mi Calm Calm - N/A   Clear
7:13 AM 53.1 °F - 51.1 °F 93% 30.22 in 3.0 mi Calm Calm - N/A   Clear
7:34 AM 53.6 °F - 51.4 °F 92% 30.22 in 2.0 mi Calm Calm - N/A   Clear
7:53 AM 55.8 °F - 53.6 °F 92% 30.22 in 4.0 mi Calm Calm - N/A   Clear
8:13 AM 57.7 °F - 55.2 °F 91% 30.22 in 5.0 mi Calm Calm - N/A   Clear
8:34 AM 59.0 °F - 56.3 °F 91% 30.23 in 5.0 mi Calm Calm - N/A   Clear
8:53 AM 60.4 °F - 57.2 °F 89% 30.24 in 10.0 mi Calm Calm - N/A   Scattered Clouds
9:13 AM 62.8 °F - 57.4 °F 82% 30.24 in 10.0 mi Calm Calm - N/A   Mostly Cloudy
9:34 AM 64.6 °F - 58.8 °F 82% 30.23 in 10.0 mi Calm Calm - N/A   Scattered Clouds
9:53 AM 66.6 °F - 60.3 °F 80% 30.23 in 10.0 mi Calm Calm - N/A   Clear
10:13 AM 68.0 °F - 61.0 °F 78% 30.23 in 10.0 mi Calm Calm - N/A   Clear
10:34 AM 69.4 °F - 62.1 °F 77% 30.23 in 10.0 mi North 3.5 mph - N/A   Clear
10:53 AM 70.7 °F - 63.0 °F 76% 30.23 in 10.0 mi North 3.5 mph - N/A   Clear
11:13 AM 71.6 °F - 62.4 °F 73% 30.23 in 10.0 mi Calm Calm - N/A   Clear
11:33 AM 72.5 °F - 62.8 °F 71% 30.22 in 10.0 mi NE 3.5 mph - N/A   Clear
11:53 AM 74.1 °F - 62.4 °F 67% 30.22 in 10.0 mi Calm Calm - N/A   Clear
12:14 PM 74.3 °F - 62.2 °F 66% 30.22 in 10.0 mi NE 3.5 mph - N/A   Clear
12:33 PM 74.8 °F - 62.4 °F 65% 30.21 in 10.0 mi Calm Calm - N/A   Scattered Clouds
12:53 PM 75.6 °F - 60.4 °F 59% 30.21 in 10.0 mi East 3.5 mph - N/A   Mostly Cloudy
1:13 PM 77.5 °F - 59.9 °F 54% 30.20 in 10.0 mi SSE 3.5 mph - N/A   Scattered Clouds
1:33 PM 76.8 °F - 59.0 °F 54% 30.20 in 10.0 mi NE 3.5 mph - N/A   Scattered Clouds
1:54 PM 77.9 °F - 58.1 °F 50% 30.19 in 10.0 mi Calm Calm - N/A   Scattered Clouds
2:13 PM 78.4 °F - 58.3 °F 50% 30.19 in 10.0 mi South 3.5 mph - N/A   Scattered Clouds
2:33 PM 78.4 °F - 57.0 °F 48% 30.18 in 10.0 mi ESE 4.6 mph - N/A   Clear
2:54 PM 78.4 °F - 57.6 °F 49% 30.17 in 10.0 mi Calm Calm - N/A   Clear
3:13 PM 79.9 °F - 58.5 °F 48% 30.17 in 10.0 mi South 5.8 mph - N/A   Clear
3:33 PM 78.4 °F - 58.8 °F 51% 30.16 in 10.0 mi SW 3.5 mph - N/A   Mostly Cloudy
3:54 PM 79.0 °F - 58.3 °F 49% 30.15 in 10.0 mi SE 3.5 mph - N/A   Scattered Clouds
4:13 PM 80.2 °F 80.9 °F 59.4 °F 49% 30.15 in 10.0 mi SE 4.6 mph - N/A   Clear
4:33 PM 80.1 °F 80.4 °F 57.0 °F 45% 30.14 in 10.0 mi South 4.6 mph - N/A   Scattered Clouds
4:54 PM 79.9 °F - 57.7 °F 47% 30.14 in 10.0 mi Calm Calm - N/A   Scattered Clouds
5:13 PM 80.2 °F 80.5 °F 57.4 °F 45% 30.14 in 10.0 mi Calm Calm - N/A   Mostly Cloudy
5:33 PM 80.1 °F 80.6 °F 57.9 °F 47% 30.13 in 10.0 mi West 3.5 mph - N/A   Mostly Cloudy
5:53 PM 80.1 °F 80.7 °F 58.6 °F 48% 30.13 in 10.0 mi SW 4.6 mph - N/A   Scattered Clouds
6:13 PM 77.7 °F - 59.4 °F 53% 30.13 in 10.0 mi WSW 3.5 mph - N/A   Clear
6:34 PM 79.3 °F - 57.9 °F 48% 30.13 in 10.0 mi Calm Calm - N/A   Clear
6:53 PM 79.5 °F - 59.5 °F 50% 30.12 in 10.0 mi Calm Calm - N/A   Scattered Clouds
7:13 PM 78.3 °F - 60.1 °F 53% 30.12 in 10.0 mi Calm Calm - N/A   Mostly Cloudy
7:34 PM 77.0 °F - 58.8 °F 53% 30.12 in 10.0 mi Calm Calm - N/A   Mostly Cloudy
7:53 PM 75.6 °F - 61.2 °F 61% 30.12 in 10.0 mi Calm Calm - N/A   Scattered Clouds
8:13 PM 75.0 °F - 61.9 °F 64% 30.12 in 10.0 mi Calm Calm - N/A   Scattered Clouds
8:34 PM 73.6 °F - 61.5 °F 66% 30.13 in 10.0 mi Calm Calm - N/A   Scattered Clouds
8:53 PM 71.4 °F - 62.2 °F 73% 30.13 in 10.0 mi Calm Calm - N/A   Mostly Cloudy
9:13 PM 70.2 °F - 62.1 °F 75% 30.14 in 10.0 mi WNW 5.8 mph - N/A   Mostly Cloudy
9:34 PM 68.4 °F - 61.7 °F 79% 30.14 in 10.0 mi Calm Calm - N/A   Mostly Cloudy
9:53 PM 67.1 °F - 60.8 °F 80% 30.14 in 10.0 mi WNW 3.5 mph - N/A   Scattered Clouds
10:13 PM 66.2 °F - 60.4 °F 82% 30.15 in 10.0 mi WNW 3.5 mph - N/A   Clear
10:33 PM 64.9 °F - 60.1 °F 84% 30.15 in 10.0 mi Calm Calm - N/A   Clear
10:53 PM 65.3 °F - 60.1 °F 83% 30.15 in 10.0 mi Calm Calm - N/A   Clear
11:14 PM 64.8 °F - 59.9 °F 84% 30.14 in 10.0 mi Calm Calm - N/A   Clear
11:33 PM 63.5 °F - 59.5 °F 87% 30.14 in 10.0 mi Calm Calm - N/A   Clear
11:53 PM 63.3 °F - 59.5 °F 87% 30.14 in 10.0 mi Calm Calm - N/A   Clear